SCP
0 0 0 0 0 0 1 1 1 1 1 1 1 2 2 1 1 1 1 1 1 1 1 1 1 0 0 0 0 0 0 0 0 0 0 0 0 0 0 0 0 0 0 0 0 0 0 0 0
0 0 0 0 0 0 1 1 1 1 1 1 1 2 2 1 1 1 1 1 1 1 1 1 1 0 0 0 0 0 0 0 0 0 0 0 0 0 0 0 0 0 0 0 0 0 0 0 0
0 0 0 0 0 0 1 1 2 2 2 2 2 2 2 1 1 1 1 1 1 1 1 1 1 0 0 0 0 0 0 0 0 0 0 0 0 0 0 0 0 0 0 0 0 0 0 0 0
0 0 0 0 0 0 1 1 2 3 3 3 2 2 2 1 1 2 2 2 2 1 1 1 1 0 0 0 0 0 0 0 0 0 0 0 0 0 0 0 0 0 0 0 0 0 0 0 0
0 0 0 0 0 0 1 1 3 4 4 3 2 2 1 2 2 2 2 2 2 1 1 1 1 0 0 0 0 0 0 0 0 0 0 0 0 0 0 0 0 0 0 0 0 0 0 0 0
0 0 0 0 0 0 1 1 3 4 3 3 2 1 1 2 2 2 2 2 2 1 1 1 1 0 0 0 0 0 0 0 0 0 0 0 0 0 0 0 0 0 0 0 0 0 0 0 1
0 0 0 0 0 0 1 1 2 3 3 2 2 1 1 2 2 2 2 1 1 1 1 1 0 0 0 0 0 0 0 0 0 0 0 0 0 0 0 0 0 0 0 0 0 0 0 1 1
0 0 0 0 0 0 1 1 2 3 3 2 2 1 2 2 2 2 2 1 1 1 1 1 0 0 0 0 0 0 0 0 0 0 0 0 0 0 0 0 0 0 0 0 0 0 0 1 1
0 0 0 0 0 0 1 2 3 3 3 3 2 2 2 3 3 3 2 2 1 1 1 1 1 1 0 0 0 0 0 0 0 0 0 0 0 0 0 0 0 0 0 0 0 0 0 0 1
0 0 0 0 0 0 1 2 3 4 4 3 2 2 3 3 4 3 3 2 2 1 1 1 1 1 1 0 0 0 0 0 0 0 0 0 0 0 0 0 0 0 0 0 0 0 0 0 0
0 0 0 0 0 0 1 2 4 4 3 3 3 3 3 3 4 4 3 2 2 1 1 1 1 1 1 0 0 0 0 0 0 0 0 0 0 0 0 0 0 0 0 0 0 0 0 0 0
0 0 0 0 0 0 1 2 3 3 2 3 3 3 3 3 3 4 3 2 2 2 1 1 1 1 1 1 0 0 0 0 0 0 0 0 0 0 0 0 0 0 0 0 0 0 0 0 0
0 0 0 1 1 1 1 2 2 2 2 2 3 3 2 3 3 3 3 3 2 2 1 1 1 1 1 1 1 1 1 0 0 0 0 0 0 0 0 0 0 0 0 0 0 0 0 0 0
0 0 1 1 1 1 1 2 2 2 2 2 2 3 2 3 3 3 4 3 3 2 2 1 1 1 1 1 1 1 1 1 1 1 1 1 1 1 1 1 0 0 0 0 0 0 0 0 0
0 0 1 1 1 1 2 2 2 2 2 2 3 3 3 3 3 3 4 4 4 3 2 2 1 1 1 1 1 1 1 1 1 1 1 1 1 1 1 1 1 0 0 0 0 0 0 0 0
0 0 0 0 0 1 1 2 2 2 3 3 4 4 4 4 4 4 4 5 5 4 3 3 2 2 1 1 1 1 1 1 1 1 2 1 1 1 1 1 1 1 1 0 0 0 0 0 0
0 0 0 0 0 1 1 2 2 3 4 4 5 6 6 5 4 4 5 5 5 5 4 3 3 2 2 2 2 1 1 1 1 1 2 2 1 1 1 1 1 1 1 1 0 0 0 0 0
0 0 0 0 1 1 1 2 3 3 4 5 6 8 8 6 5 5 5 5 5 4 4 4 4 3 3 3 2 2 2 2 1 2 2 1 1 1 1 1 1 1 1 1 0 0 0 0 0
0 0 0 0 1 1 1 2 3 4 4 5 7 10 10 8 6 6 6 6 5 4 4 4 4 4 4 3 3 3 3 2 2 2 2 1 2 2 1 1 1 1 1 1 0 0 0 0 0
0 0 0 0 0 1 1 2 2 3 4 5 8 11 12 10 8 7 7 7 5 4 4 4 4 4 4 4 3 3 3 3 2 2 2 2 2 2 2 1 1 1 1 0 0 0 0 0 0
0 0 0 0 1 1 1 1 2 3 4 6 8 11 12 11 10 8 7 6 5 4 4 4 4 4 4 4 4 3 3 3 2 2 2 2 2 2 2 1 1 1 1 1 0 0 0 0 0
0 0 0 1 1 1 1 1 2 3 5 6 8 9 10 11 11 9 7 6 5 4 4 4 4 5 5 5 4 4 3 3 3 2 2 2 2 2 2 2 1 1 1 1 1 0 0 0 0
0 0 0 1 1 1 0 0 1 3 6 7 8 8 9 11 10 8 6 6 5 5 4 4 4 5 4 4 4 3 3 3 3 2 2 2 2 2 2 2 1 1 1 1 1 1 0 0 0
0 0 0 0 0 0 0 0 1 2 6 8 8 8 9 9 8 7 6 6 5 5 4 4 4 4 3 3 3 2 2 2 2 2 2 2 2 2 2 2 1 1 1 1 1 1 1 0 0
0 0 0 0 0 0 0 0 0 1 4 8 9 9 9 9 8 7 7 6 5 5 5 4 4 3 3 2 2 2 2 2 2 2 2 2 2 2 2 2 1 1 1 1 1 1 1 1 1
0 0 0 0 0 0 0 0 0 1 3 6 8 9 10 10 8 7 6 6 6 5 5 5 4 3 3 2 2 2 2 2 2 2 2 2 2 2 2 2 1 1 1 1 1 1 1 1 1
0 0 0 0 0 0 0 0 1 1 2 4 7 9 10 9 8 6 6 6 6 6 6 5 4 4 3 2 2 2 2 2 2 2 2 2 2 2 2 1 1 1 1 1 1 1 2 2 2
0 0 0 0 0 0 0 0 1 2 3 4 6 8 9 9 8 7 6 7 8 7 6 5 5 4 3 3 2 2 2 2 2 2 2 2 2 2 2 2 2 2 2 2 2 2 2 2 2
0 0 0 0 0 0 0 0 1 3 4 5 6 7 8 8 8 8 8 8 10 9 6 4 5 5 4 3 3 3 3 2 2 2 2 2 2 2 2 2 2 2 2 3 3 2 2 2 2
0 0 0 0 0 0 0 0 1 3 4 5 6 7 7 7 8 9 10 10 10 10 6 4 4 5 5 4 3 3 3 3 2 2 2 1 1 1 2 2 2 2 3 3 3 3 2 2 2
Wind_Speed
3 3 1 2 4 5 0 2 5 7 6 7 11 11 10 7 6 9 6 14 16 12 10 13 16 17 17 17 17 17 18 18 18 18 18 18 18 18 18 17 17 16 16 16 16 15 15 14 14
2 2 2 4 5 3 1 3 7 9 11 12 13 12 10 10 11 13 10 15 15 13 9 12 17 17 17 17 17 17 17 17 17 17 17 17 17 17 17 16 16 15 15 15 14 14 14 13 13
2 1 3 4 2 2 2 4 9 13 11 9 8 8 8 11 13 8 12 17 14 11 8 13 19 18 17 17 16 17 17 17 17 16 16 16 16 16 16 15 15 15 14 14 14 13 13 12 12
1 3 3 3 3 5 5 5 10 15 12 10 10 8 6 8 9 15 19 18 15 11 9 13 18 18 17 17 16 16 16 16 16 16 16 16 16 15 15 15 14 14 13 13 13 12 11 11 11
3 3 3 2 4 4 4 7 10 12 8 8 12 9 6 7 21 22 19 18 15 11 8 12 18 18 17 17 17 16 16 16 15 15 15 15 15 15 14 14 13 13 12 12 11 11 10 10 9
3 3 2 2 4 3 1 7 12 15 14 12 12 9 6 14 21 20 18 16 15 13 10 11 17 18 17 17 16 16 16 15 15 15 15 14 14 14 14 13 13 12 12 11 10 9 9 8 8
3 2 2 3 2 2 2 7 12 14 13 8 10 9 8 13 16 18 17 15 13 12 10 8 9 12 16 16 16 16 15 15 15 14 14 14 14 13 13 12 12 11 11 10 9 8 8 7 7
4 3 2 2 2 3 3 5 10 15 12 12 9 10 12 15 16 17 16 13 12 10 9 8 7 7 7 9 15 15 15 15 14 14 14 13 13 13 12 10 10 10 9 9 8 7 7 6 7
2 3 2 4 3 3 3 8 6 8 12 7 5 8 17 21 20 18 16 13 11 11 8 8 8 7 7 7 11 12 14 13 12 11 13 10 5 5 6 9 10 9 8 7 6 5 4 4 5
4 4 8 7 4 4 4 8 7 8 10 9 11 15 19 21 21 20 18 17 14 13 10 8 9 8 7 7 6 4 5 5 5 4 5 4 3 3 5 8 9 8 7 5 3 2 2 2 2
4 7 6 7 6 4 4 4 5 13 9 15 21 22 20 19 18 18 17 17 16 15 13 11 10 9 7 5 5 3 3 3 4 5 5 4 3 2 3 2 3 3 3 1 1 1 1 1 1
4 7 7 7 4 4 6 5 6 9 13 18 22 23 21 20 18 18 17 16 15 14 13 12 11 9 8 7 5 5 4 3 3 4 5 4 3 3 3 2 2 1 1 1 1 0 1 0 1
6 8 9 8 5 4 5 6 7 6 13 18 20 20 19 18 15 13 15 16 15 14 14 13 12 10 9 7 6 6 5 5 5 4 5 5 4 4 3 2 2 2 1 2 1 1 1 1 2
6 6 8 6 4 2 5 4 7 8 16 19 20 18 18 17 16 14 15 14 14 14 14 12 12 11 10 8 6 6 5 5 5 4 5 6 5 4 4 3 2 2 2 2 2 2 2 2 2
4 6 9 5 3 2 6 2 6 14 18 19 18 17 16 14 15 17 17 15 15 14 13 11 12 11 10 9 8 6 5 5 5 5 5 6 5 5 5 4 3 3 2 2 2 2 1 1 2
4 3 4 7 2 3 7 4 6 14 19 17 16 16 15 14 15 15 15 13 13 13 13 12 12 11 9 7 6 5 5 6 5 4 5 6 6 6 5 4 3 3 3 2 2 2 2 1 1
3 2 4 7 4 3 5 6 9 13 17 16 16 15 15 13 12 13 15 15 14 14 13 11 10 10 8 7 5 5 5 5 5 4 4 5 6 6 4 4 3 3 3 2 3 2 2 2 2
5 3 4 6 5 2 4 7 9 13 17 17 16 15 15 16 16 15 15 15 14 13 12 11 9 9 8 5 4 3 4 4 4 4 5 6 5 6 5 3 3 3 3 2 2 2 2 2 2
4 4 7 10 8 4 6 9 11 12 14 14 14 15 16 15 13 13 15 15 14 13 12 11 11 9 7 5 4 5 4 4 4 4 6 6 5 5 5 4 3 3 3 3 4 2 2 1 1
7 8 10 10 8 3 4 7 9 12 15 18 19 18 17 13 11 14 14 14 14 15 13 12 11 10 8 6 4 4 4 3 4 4 5 5 5 5 5 5 4 4 3 3 3 3 2 1 2
9 9 9 9 7 3 3 1 4 6 7 11 16 17 18 19 20 18 17 15 14 14 15 13 12 10 9 7 4 3 3 2 2 3 4 4 6 6 5 6 5 4 4 4 4 4 4 2 1
9 10 9 7 2 4 3 3 7 6 6 9 12 14 16 17 16 17 17 17 17 15 13 12 12 11 9 9 7 7 6 5 5 4 4 4 5 6 6 5 5 5 4 4 4 4 3 4 2
10 9 6 4 2 2 1 3 7 3 7 10 13 15 16 17 18 19 19 18 16 14 13 12 12 11 9 9 9 8 6 4 3 4 5 5 5 6 6 6 5 5 4 4 4 4 4 3 3
8 4 3 3 4 2 4 4 7 6 12 12 13 15 16 17 18 16 14 13 11 12 12 12 12 11 10 10 9 9 8 6 6 6 6 5 4 4 6 6 5 5 5 5 5 4 5 4 4
4 4 3 3 2 6 4 4 10 10 11 13 14 16 17 16 16 15 14 14 14 15 14 13 13 12 11 10 9 9 8 8 9 8 7 6 4 4 6 6 5 5 5 5 5 4 4 4 4
6 10 9 6 5 5 2 6 9 8 6 7 10 13 15 15 15 16 17 17 16 16 15 14 14 12 12 11 10 8 8 6 6 7 7 7 6 6 6 7 6 6 6 6 5 4 4 4 4
5 5 9 8 2 1 5 5 7 4 0 2 6 9 12 15 16 16 16 15 15 15 15 15 14 12 12 12 10 8 8 7 7 7 7 6 6 6 7 7 7 6 6 6 5 4 4 4 4
8 8 6 6 4 3 5 4 4 4 3 2 5 8 11 13 15 14 15 15 14 13 12 12 12 13 11 11 10 8 7 8 7 6 7 7 7 6 7 7 7 6 6 6 5 4 4 5 5
3 4 5 6 6 6 3 7 7 7 6 6 8 8 11 14 15 13 12 12 11 10 10 10 11 10 10 10 9 8 7 7 6 6 7 6 6 6 7 7 7 7 7 6 6 6 6 6 6
7 7 8 6 4 5 4 9 6 5 5 7 8 7 8 12 12 12 12 11 10 10 10 10 10 10 10 9 8 8 7 6 6 6 6 6 6 6 6 6 7 7 7 7 7 8 7 7 7
Wind_Direction
260 247 191 44 49 45 34 186 125 95 61 65 82 87 87 69 106 126 128 133 133 132 130 126 123 120 117 114 111 108 107 106 105 105 105 105 105 105 106 106 106 106 105 105 104 104 104 103 103
263 225 70 51 68 47 286 153 110 109 123 108 84 83 78 71 89 113 124 135 133 131 130 129 127 123 120 118 115 113 111 109 108 108 108 108 108 108 108 108 108 107 106 106 106 106 104 102 101
269 176 80 67 90 177 217 145 123 120 118 99 93 75 80 109 117 120 135 137 131 127 129 134 129 126 123 121 119 117 115 113 112 112 112 112 112 111 111 110 109 109 109 109 108 107 105 102 100
38 47 50 72 261 227 196 178 135 116 90 79 93 76 74 114 120 129 137 136 129 128 131 136 132 129 127 125 123 121 119 118 117 117 116 116 115 114 113 112 112 112 112 111 109 107 103 100 99
71 75 50 329 268 256 205 166 131 114 100 93 93 89 65 84 120 131 137 135 132 131 132 135 133 132 131 129 127 125 123 122 121 120 120 119 119 118 117 116 115 114 113 113 112 109 105 101 99
50 75 75 285 288 297 199 131 111 104 109 106 100 97 87 127 131 138 137 136 136 136 134 136 136 135 134 132 131 130 129 128 126 125 124 123 122 121 120 120 119 118 117 116 115 111 106 99 96
126 92 213 240 286 286 175 135 129 128 127 127 123 104 119 144 140 138 136 134 135 136 134 133 137 138 138 137 135 134 133 132 131 130 129 127 126 125 124 123 124 123 122 121 118 113 107 101 97
156 96 309 279 245 246 169 126 132 132 121 130 130 129 150 156 141 134 132 132 134 136 137 134 132 132 134 137 140 139 137 136 135 134 134 133 132 130 128 126 128 128 128 127 124 117 106 98 98
124 84 242 235 207 232 166 117 113 106 122 138 133 132 146 143 137 134 133 134 141 143 146 144 140 138 136 141 145 143 142 142 139 138 138 131 119 121 127 135 136 135 134 133 128 121 106 98 100
122 167 228 215 216 207 177 135 136 113 111 102 107 120 135 140 144 145 148 151 154 156 158 157 153 152 153 152 138 139 141 138 134 136 133 125 128 141 141 148 145 143 141 137 130 112 74 80 82
185 210 237 254 242 185 156 149 132 128 134 146 145 146 148 148 150 153 156 158 161 161 163 163 163 164 163 146 150 147 140 143 147 152 151 145 140 138 129 133 140 137 142 122 128 51 356 34 98
255 261 258 262 236 174 168 148 129 148 165 158 151 151 152 155 160 161 160 161 161 164 166 167 169 168 164 155 160 156 154 160 163 168 164 150 145 144 148 149 158 163 165 188 215 255 265 299 142
257 269 271 262 252 194 157 140 136 148 143 146 147 151 157 160 161 159 158 161 163 166 167 170 170 169 164 160 168 164 167 172 171 168 168 159 155 159 163 169 178 190 191 190 187 188 152 122 120
256 278 283 276 267 192 139 128 115 148 144 149 155 160 164 164 161 158 159 163 167 167 167 168 168 168 164 168 171 165 171 170 166 170 172 167 162 162 164 168 178 190 192 188 175 170 148 128 121
279 302 306 289 241 185 115 78 148 155 152 156 163 166 166 166 164 166 168 167 166 164 163 165 167 165 165 167 170 165 168 167 170 173 171 170 165 163 163 166 177 193 180 160 142 136 118 125 121
349 329 294 288 250 213 124 195 187 158 157 162 168 170 170 172 173 170 168 164 161 158 159 167 168 163 164 163 162 161 166 165 170 169 168 169 166 164 160 167 180 180 160 149 141 133 118 105 112
351 268 264 289 264 202 147 189 191 169 165 167 173 174 174 173 175 174 170 166 163 162 161 165 161 162 162 158 156 158 159 164 166 163 162 167 167 163 159 169 178 163 148 152 163 134 136 142 146
237 250 271 265 278 201 191 197 189 178 174 175 175 175 177 180 183 177 172 168 163 164 162 161 160 162 155 146 141 140 149 160 161 162 168 167 168 165 158 164 169 152 141 140 136 135 130 149 161
246 277 276 273 278 245 212 196 193 184 177 176 176 177 183 189 181 173 169 167 163 166 164 164 164 166 157 152 156 154 164 167 167 173 174 171 170 167 161 163 161 154 154 163 154 138 132 140 122
251 263 272 284 281 247 201 202 191 182 182 179 178 181 181 176 174 174 169 169 170 171 171 168 170 171 169 167 163 159 157 167 172 175 174 172 170 171 172 163 167 167 158 154 158 144 138 167 142
248 232 244 258 295 326 140 240 214 202 182 180 179 181 180 176 177 176 174 176 174 175 176 176 175 174 172 164 150 139 125 124 152 175 182 183 177 181 174 171 168 170 165 172 177 164 154 170 197
249 239 234 247 277 285 147 206 254 213 187 188 184 181 181 181 178 176 176 177 180 180 176 172 173 173 172 169 168 168 172 180 190 182 184 187 186 186 182 175 171 172 170 175 187 173 163 155 180
230 242 234 234 210 285 332 162 263 211 199 203 193 186 184 183 181 180 181 181 178 173 172 171 170 174 175 177 178 179 184 187 176 171 179 186 192 193 191 181 175 174 177 183 188 173 170 167 171
225 251 340 40 75 252 239 170 256 218 203 200 196 189 187 185 183 181 178 169 166 169 171 171 173 178 179 181 183 186 184 180 175 183 188 192 192 195 193 185 182 182 183 186 189 185 180 182 179
201 120 37 351 6 244 238 191 242 237 206 196 191 190 188 184 180 173 170 171 172 174 176 175 177 180 182 184 188 189 189 187 188 190 193 192 190 196 199 191 186 188 190 188 184 185 192 192 189
202 148 160 186 213 267 282 223 252 251 217 197 183 180 181 182 179 176 178 177 178 178 178 177 181 182 184 188 192 191 191 191 195 196 193 197 199 199 194 190 190 191 191 191 186 191 201 199 201
181 177 170 141 176 239 274 276 303 327 48 168 164 169 178 181 179 178 177 179 180 180 181 181 181 182 186 190 192 194 194 194 196 196 195 199 201 200 195 193 194 197 195 192 187 198 205 201 205
174 165 112 123 160 239 279 266 250 279 269 192 166 185 182 178 178 177 177 180 181 181 178 177 180 185 185 189 194 198 198 195 194 191 197 199 199 198 191 196 197 198 198 195 193 199 202 201 213
173 144 129 138 154 161 243 268 227 214 211 193 188 188 180 173 174 174 174 173 169 164 168 175 181 181 184 188 192 195 193 192 190 193 198 196 194 193 194 195 197 200 201 199 198 210 205 208 220
177 176 147 156 211 172 178 263 258 225 206 183 181 178 168 166 166 167 165 161 160 163 168 178 182 182 184 185 186 193 190 189 195 199 198 191 192 194 194 193 197 205 207 203 202 213 214 212 218